Temperature
17 17 18 17 18 18 18 18 18 18 18 18 18 18 18 18 18 17 17 18 17 17 18 18 18 18 18 18 18 18 18 18 18 18 18 18 18 18 18 18 18 17 18
17 17 17 17 17 17 18 17 17 18 18 18 18 17 17 17 17 17 17 17 17 17 17 17 17 17 17 17 18 18 18 18 18 18 18 18 18 18 18 18 18 18 18
17 17 17 17 17 17 17 17 17 17 17 17 17 17 17 17 17 17 17 17 17 17 17 17 17 17 17 17 17 17 17 18 18 18 18 17 17 18 18 18 18 18 18
17 17 17 17 17 17 17 17 17 17 17 17 17 17 17 17 16 16 16 16 16 16 17 17 17 17 17 17 17 17 17 17 18 18 17 17 17 18 18 18 18 18 18
17 17 17 17 17 17 17 17 17 17 17 17 16 16 16 16 16 16 16 16 16 16 16 16 16 17 17 17 17 17 17 17 18 17 17 17 17 18 18 18 18 18 18
17 16 17 17 17 17 17 17 16 16 16 16 16 16 16 16 16 16 16 16 15 16 16 16 16 16 16 17 17 17 17 17 17 17 17 17 17 17 18 18 18 18 18
17 16 16 17 16 16 16 16 16 16 16 16 16 16 16 16 16 15 15 15 15 15 15 16 16 16 16 16 16 17 17 17 17 17 17 17 17 17 17 17 17 18 18
17 16 16 17 16 16 16 16 16 16 16 16 16 16 16 16 16 16 16 15 15 15 15 16 16 16 16 16 16 17 17 17 17 17 17 17 17 17 17 17 17 17 18
17 16 16 16 16 16 16 16 16 16 16 16 16 16 16 16 16 16 15 15 15 15 15 15 16 16 16 16 16 16 17 17 16 17 17 17 17 17 17 17 17 17 17
17 17 16 16 16 16 16 16 16 16 16 16 16 16 16 15 15 15 15 15 15 15 15 15 15 16 16 16 16 16 16 17 16 17 17 17 17 17 17 17 17 17 17
17 17 17 16 16 16 16 16 16 16 16 16 15 15 15 15 15 15 15 15 15 15 15 15 15 16 16 16 16 16 16 16 16 16 16 17 17 17 17 17 17 17 17
17 17 17 17 17 16 16 16 16 16 15 15 15 15 15 15 15 15 15 15 15 15 15 15 15 15 16 16 16 16 16 16 16 16 16 17 17 17 17 17 17 17 17
17 17 17 17 17 17 16 16 16 16 15 15 15 15 15 15 15 15 15 15 15 15 15 15 15 15 15 15 16 16 16 16 16 16 16 16 17 17 17 17 17 17 17
18 17 17 17 17 17 16 16 16 16 15 15 15 15 15 15 15 15 15 15 15 15 15 15 15 15 15 16 16 16 16 16 16 16 16 16 17 17 17 17 17 17 17
18 17 17 17 17 17 16 16 16 15 16 15 15 15 15 15 15 15 15 14 15 15 15 15 15 15 15 15 16 16 16 16 16 16 16 16 16 16 16 17 17 17 17
18 17 17 17 17 16 16 16 16 16 15 15 15 15 15 15 15 15 15 14 15 15 15 15 15 15 15 15 15 15 15 15 16 16 16 16 16 16 16 16 16 17 17
18 17 17 17 17 16 16 16 16 15 15 15 15 15 15 15 15 15 15 15 15 15 15 15 15 15 15 15 15 15 15 15 15 15 15 15 16 16 16 16 16 17 17
18 17 17 17 17 16 16 16 16 15 15 15 15 15 15 15 15 15 14 15 14 14 15 15 15 15 15 15 15 15 15 15 15 15 15 15 16 16 16 16 16 16 16
18 17 17 17 16 16 16 16 16 15 15 15 15 15 15 15 15 15 15 15 14 14 15 15 15 15 15 15 15 15 15 15 15 15 15 15 15 16 16 16 16 16 16
18 17 17 17 17 16 16 16 16 15 15 15 15 15 15 15 15 15 15 15 15 14 14 14 14 15 15 15 15 15 15 15 15 15 15 15 15 15 15 16 16 16 16
17 17 17 17 17 16 16 16 16 15 15 15 15 15 15 15 15 15 15 14 15 14 14 14 14 14 15 15 15 15 15 15 15 15 15 15 15 15 15 15 16 16 16
18 17 17 17 17 16 16 16 15 15 15 15 15 15 15 15 15 15 14 14 15 15 15 14 15 14 14 15 15 16 16 16 15 15 15 15 15 15 15 15 15 16 16
17 17 17 17 17 16 16 16 15 15 15 15 15 15 15 14 14 14 14 14 14 14 14 14 14 14 14 14 14 15 16 16 15 15 15 15 15 15 15 15 15 15 15
17 17 17 17 17 16 16 16 15 15 15 15 15 15 15 15 14 14 14 14 14 14 14 14 14 14 14 14 14 14 14 14 15 15 15 15 15 15 15 15 15 15 15
17 17 17 17 16 16 16 16 15 15 15 15 15 15 14 14 14 14 14 14 14 14 14 14 14 14 14 14 14 14 14 14 14 15 15 15 15 15 15 14 15 15 15
17 17 17 17 16 16 16 16 15 15 15 15 14 14 14 14 14 14 14 14 14 14 14 14 14 14 14 14 14 13 13 14 14 14 14 15 15 14 14 14 14 14 15
Wind_Speed
4 6 9 9 10 12 12 13 13 13 13 12 12 12 11 11 10 10 10 10 10 9 9 9 9 8 8 8 7 7 7 7 6 6 6 6 6 6 6 5 5 3 6
7 8 10 10 11 13 13 13 13 12 13 13 12 12 12 11 11 10 10 9 9 9 9 9 9 8 8 7 7 7 7 7 6 6 4 2 4 6 6 5 6 6 5
8 9 11 11 12 13 13 13 13 12 13 12 12 12 12 11 10 10 9 9 9 9 8 8 8 7 8 8 7 7 6 6 6 5 4 2 4 5 6 6 5 5 5
9 10 12 12 12 13 13 13 13 13 13 13 12 12 11 11 10 10 9 9 8 8 8 8 7 7 7 7 7 6 6 5 5 5 3 4 4 7 6 6 6 6 5
10 11 13 13 13 13 13 13 13 13 12 12 11 11 10 10 10 9 9 8 8 7 7 7 7 7 7 7 7 6 6 5 5 4 4 4 4 6 6 6 6 6 5
11 12 13 12 13 13 13 13 12 12 12 11 10 10 9 9 8 8 8 7 7 7 7 7 7 6 6 6 6 6 5 5 5 3 3 3 4 6 6 6 6 6 6
10 11 13 12 13 13 12 12 11 11 10 10 9 9 8 8 7 7 7 7 6 6 6 6 6 7 6 6 6 6 5 5 4 3 3 3 5 6 6 6 6 6 5
10 11 12 12 12 12 12 11 11 10 9 9 8 8 8 7 7 7 7 7 6 6 6 6 6 6 6 6 6 6 6 7 3 3 2 3 5 6 6 5 6 6 5
9 9 9 10 11 11 11 10 10 10 9 8 7 7 8 8 8 7 7 7 7 6 6 6 6 6 6 6 6 5 5 6 4 3 3 3 5 6 5 5 5 6 5
8 8 8 8 8 8 9 10 9 9 8 7 7 7 5 4 5 5 6 9 9 8 7 6 6 6 6 5 5 5 5 6 3 3 3 5 6 6 5 4 5 6 5
7 6 6 7 7 7 7 7 6 6 6 4 5 5 2 5 6 5 10 9 9 8 7 7 6 5 4 0 2 4 6 3 2 3 4 7 6 5 5 4 5 5 5
7 6 6 5 6 6 6 6 5 6 6 6 7 6 5 6 5 5 6 6 6 5 3 5 4 3 5 2 1 4 3 2 2 2 5 7 6 5 4 4 4 4 4
7 6 5 5 6 5 5 5 5 5 5 6 7 6 5 5 4 5 4 4 5 5 5 4 3 4 4 4 4 3 3 3 2 3 6 8 6 5 5 4 4 4 4
6 6 5 5 5 5 5 5 4 5 5 6 6 7 6 5 5 5 5 6 5 5 6 5 4 5 5 4 3 3 2 2 2 3 6 8 8 7 5 4 4 3 3
6 6 6 5 5 5 5 4 5 5 5 6 6 6 7 6 5 5 5 5 6 6 5 5 5 5 5 4 4 3 3 3 2 3 4 7 7 7 6 5 4 3 3
6 6 5 5 5 4 4 4 5 5 5 5 6 6 7 6 6 5 5 5 6 6 6 5 5 5 4 4 4 4 3 3 2 2 3 3 6 7 7 6 5 4 4
6 5 5 4 4 4 5 5 5 5 5 5 5 6 7 6 6 5 5 5 6 6 6 5 5 5 4 4 4 4 3 4 3 4 3 3 3 6 7 7 6 5 5
5 5 4 3 3 4 4 4 4 5 5 5 5 6 7 7 6 5 5 5 6 6 5 4 5 5 5 5 4 4 4 4 4 4 3 3 4 4 6 8 7 7 6
5 5 4 3 3 3 3 3 4 5 5 5 5 6 7 7 7 6 5 5 6 5 5 5 5 5 5 4 4 4 4 4 4 4 4 4 5 4 5 6 6 6 6
4 4 4 3 3 3 3 3 3 4 4 5 5 6 7 7 7 6 5 6 6 5 5 5 5 5 4 4 4 4 4 4 4 5 4 4 4 5 5 5 4 5 6
5 4 4 4 3 3 2 1 2 3 3 4 5 7 7 7 7 6 5 6 5 5 5 6 5 5 5 4 2 3 3 4 6 4 4 4 5 5 5 5 4 4 3
5 5 4 3 3 2 2 2 2 2 3 4 4 6 7 7 7 6 6 5 5 5 5 6 5 4 4 5 4 2 1 2 4 5 4 4 5 5 4 5 4 3 3
5 5 4 3 3 3 3 2 2 2 2 3 4 4 6 7 8 7 7 6 6 6 6 6 6 6 5 5 6 4 3 3 3 2 4 5 5 5 4 5 5 4 4
5 4 4 4 3 3 3 2 2 2 3 3 3 3 5 6 7 7 6 6 6 6 6 6 6 5 5 4 4 4 4 4 3 2 2 5 5 5 6 5 5 5 5
6 5 4 4 4 3 3 3 2 3 3 2 2 3 4 5 7 7 6 6 6 6 7 7 7 6 5 5 5 4 4 3 3 3 3 4 4 4 5 5 4 5 5
6 5 5 5 4 4 3 3 3 4 3 3 2 3 3 3 4 6 6 6 6 6 6 6 6 7 6 6 5 4 4 4 4 4 4 4 4 4 4 4 3 4 4
Wind_Direction
96 98 104 105 104 100 97 94 91 90 88 87 84 82 79 76 74 72 68 64 60 56 53 50 47 44 48 47 44 40 38 37 37 36 36 38 36 27 20 9 347 17 46
104 100 106 103 100 97 95 92 88 86 85 83 80 77 73 70 67 66 63 59 55 53 51 49 46 38 39 40 37 33 30 28 26 25 16 49 57 28 18 13 4 16 17
104 101 104 100 98 96 94 91 88 84 81 78 76 74 71 68 63 61 58 55 52 50 47 46 42 36 34 32 30 25 22 20 15 360 314 358 61 48 18 13 12 7 6
99 95 91 95 96 94 93 90 87 83 80 76 73 72 70 68 64 60 56 52 49 46 41 37 32 29 30 26 23 19 17 15 4 318 325 19 20 46 14 6 3 1 357
94 92 90 90 90 90 88 86 83 81 79 77 74 71 69 66 63 58 53 48 45 42 37 32 25 23 24 22 19 14 11 9 341 312 8 12 17 31 8 3 0 359 2
97 93 91 87 86 85 83 81 80 78 77 75 72 69 64 60 56 51 47 43 39 37 33 27 21 18 16 16 14 12 8 352 304 349 2 1 18 28 6 5 3 3 13
97 94 93 86 84 82 79 77 76 78 76 72 66 62 57 51 45 41 41 35 32 31 26 24 20 16 14 13 9 8 6 335 315 340 342 4 22 12 2 9 10 10 14
97 97 98 90 82 78 75 71 70 71 69 66 60 54 50 45 40 36 33 28 26 24 21 23 20 18 17 13 8 5 4 331 330 336 350 9 25 1 357 5 8 5 18
94 92 91 94 94 88 75 66 64 60 59 55 51 50 47 45 40 35 33 26 19 19 19 19 20 21 18 14 8 5 0 335 320 338 346 20 25 0 0 9 9 8 28
101 95 91 87 83 83 85 72 61 56 50 48 48 45 42 64 63 43 40 36 26 24 21 19 17 14 10 12 9 2 332 286 337 345 357 37 22 359 3 14 17 11 19
104 101 99 91 80 73 71 73 70 69 53 50 69 62 12 36 40 49 41 33 27 23 25 23 13 357 322 304 20 332 289 325 357 349 19 30 6 359 2 23 26 19 15
110 106 100 92 84 77 66 67 54 56 49 42 38 35 34 42 36 30 76 47 31 16 30 29 347 294 286 329 95 257 303 333 320 19 47 28 7 7 15 31 36 25 17
108 104 96 92 83 76 75 60 52 51 48 48 38 36 33 36 35 30 27 40 25 2 11 13 330 5 356 4 336 339 357 334 2 18 48 31 23 22 25 35 43 31 27
104 98 94 90 87 76 68 63 55 54 49 47 38 32 36 36 29 32 27 21 15 18 9 2 360 14 4 359 355 2 13 357 17 23 51 37 29 29 30 32 39 38 28
111 106 97 88 79 76 68 58 61 57 47 55 41 33 35 32 30 27 29 23 18 14 14 9 8 15 6 8 8 12 16 19 12 23 57 53 35 33 32 28 30 42 34
116 110 104 95 87 77 77 72 65 62 58 44 39 35 32 33 29 21 30 28 21 15 12 4 15 6 10 17 20 28 17 28 27 30 33 69 72 50 37 34 34 40 43
118 116 106 101 96 82 72 68 68 58 49 45 38 30 32 31 27 27 24 27 21 15 16 11 16 10 21 29 33 33 38 26 18 31 31 19 56 79 58 45 43 45 47
125 122 116 119 109 89 77 69 67 59 50 46 40 32 29 31 31 27 25 26 17 16 20 21 17 21 30 31 32 33 42 40 28 26 32 44 38 38 71 60 51 53 49
132 131 127 123 117 106 96 86 69 66 55 47 41 34 25 25 23 32 25 18 18 19 21 21 28 19 31 32 41 43 44 44 34 28 35 40 44 36 41 68 73 66 53
135 133 128 130 132 125 120 103 86 65 56 49 43 35 26 24 22 23 26 22 18 25 23 24 30 28 26 23 39 53 54 51 46 37 31 39 35 36 35 34 53 76 72
142 138 134 141 142 144 125 105 81 68 55 51 46 38 32 30 26 29 24 26 20 28 23 23 24 31 32 19 30 65 84 62 45 46 34 27 40 34 31 38 36 38 62
146 142 138 132 136 136 110 89 82 72 61 58 50 46 35 36 33 30 32 34 32 30 31 27 24 19 29 20 3 355 41 92 50 43 39 31 30 30 26 29 29 45 36
153 146 139 134 133 130 130 120 119 109 99 78 61 48 37 37 37 34 36 36 33 35 35 27 23 22 21 27 23 5 359 15 4 40 30 28 28 24 23 25 21 30 37
156 147 142 133 120 118 127 128 118 100 82 66 56 58 57 48 42 37 39 38 41 40 39 33 32 25 16 23 31 24 16 6 338 353 21 27 24 26 21 20 24 27 29
149 146 142 130 117 111 112 109 115 98 95 90 80 67 58 53 43 41 41 42 43 43 41 39 35 29 26 20 18 16 17 6 345 340 343 353 10 23 18 15 20 24 22
145 145 143 135 122 117 123 120 111 104 102 96 83 72 67 64 50 48 44 46 45 43 41 38 39 41 33 28 21 20 11 4 357 347 331 337 349 4 7 12 14 19 19
Height
1538 1538 1538 1539 1539 1540 1540 1540 1540 1541 1541 1540 1541 1541 1541 1540 1540 1540 1540 1539 1539 1538 1538 1537 1537 1536 1536 1535 1535 1534 1534 1533 1533 1532 1532 1531 1531 1530 1529 1528 1527 1528 1526
1539 1539 1539 1540 1541 1541 1541 1541 1542 1542 1542 1542 1541 1541 1541 1541 1541 1540 1540 1540 1539 1539 1538 1538 1537 1537 1536 1536 1535 1535 1534 1534 1533 1533 1532 1532 1531 1530 1530 1529 1528 1527 1526
1540 1541 1541 1542 1542 1542 1543 1543 1542 1543 1543 1543 1542 1542 1542 1542 1541 1541 1541 1540 1540 1539 1538 1538 1537 1537 1537 1536 1536 1535 1535 1534 1534 1533 1533 1534 1533 1531 1530 1529 1528 1527 1526
1542 1543 1543 1543 1543 1544 1544 1544 1544 1544 1544 1544 1543 1543 1543 1542 1542 1542 1541 1541 1540 1539 1539 1538 1538 1537 1537 1536 1536 1535 1535 1534 1534 1534 1535 1535 1534 1532 1531 1530 1529 1528 1527
1544 1545 1544 1545 1545 1545 1545 1545 1545 1545 1545 1545 1544 1544 1544 1543 1543 1542 1542 1541 1540 1540 1539 1538 1538 1537 1537 1536 1536 1535 1535 1535 1534 1535 1535 1534 1533 1532 1531 1530 1529 1528 1527
1546 1547 1546 1546 1546 1547 1547 1547 1547 1547 1546 1546 1546 1545 1545 1544 1544 1543 1543 1542 1541 1540 1539 1538 1538 1537 1537 1536 1536 1535 1535 1535 1535 1535 1535 1534 1534 1532 1531 1530 1529 1528 1527
1549 1549 1549 1548 1548 1548 1548 1548 1548 1548 1548 1547 1547 1546 1546 1545 1545 1544 1543 1542 1541 1540 1540 1539 1538 1537 1537 1536 1536 1535 1535 1535 1535 1535 1535 1535 1534 1533 1532 1531 1530 1529 1528
1551 1551 1551 1550 1550 1550 1550 1550 1550 1550 1549 1549 1548 1547 1547 1546 1545 1544 1544 1543 1542 1541 1540 1539 1538 1538 1537 1536 1536 1535 1535 1535 1536 1536 1535 1535 1534 1533 1532 1531 1530 1529 1528
1552 1553 1554 1554 1553 1552 1552 1552 1552 1551 1551 1550 1549 1548 1548 1547 1546 1545 1544 1543 1542 1541 1540 1539 1538 1538 1537 1536 1536 1536 1535 1535 1536 1536 1536 1535 1534 1533 1533 1532 1531 1529 1528
1554 1555 1556 1556 1556 1556 1555 1554 1553 1553 1552 1551 1550 1549 1549 1548 1547 1546 1545 1543 1542 1541 1540 1539 1539 1538 1537 1536 1536 1536 1535 1535 1536 1536 1536 1535 1534 1533 1533 1532 1531 1530 1529
1557 1557 1558 1558 1557 1557 1557 1556 1555 1554 1553 1553 1552 1550 1550 1550 1549 1548 1545 1544 1543 1542 1540 1539 1538 1538 1537 1536 1536 1535 1536 1536 1536 1536 1536 1534 1534 1533 1533 1532 1531 1530 1530
1558 1559 1559 1559 1559 1559 1558 1558 1557 1556 1555 1554 1553 1552 1551 1550 1549 1548 1546 1544 1543 1542 1541 1539 1538 1538 1538 1538 1537 1536 1537 1536 1536 1536 1535 1534 1534 1534 1533 1533 1532 1531 1531
1560 1560 1561 1561 1561 1560 1560 1559 1558 1557 1556 1555 1554 1553 1552 1551 1550 1549 1548 1546 1545 1543 1542 1541 1540 1539 1539 1537 1537 1537 1536 1536 1537 1536 1535 1534 1534 1534 1533 1533 1533 1532 1531
1561 1562 1562 1562 1562 1562 1561 1560 1559 1559 1558 1557 1555 1554 1553 1552 1551 1550 1549 1547 1546 1544 1542 1542 1540 1540 1539 1538 1537 1537 1536 1536 1536 1536 1535 1534 1534 1534 1533 1533 1533 1532 1532
1562 1563 1563 1563 1563 1563 1562 1561 1561 1560 1559 1558 1556 1555 1554 1553 1552 1551 1550 1547 1547 1545 1544 1542 1541 1540 1539 1538 1537 1537 1537 1536 1536 1536 1536 1534 1534 1534 1534 1533 1533 1533 1533
1564 1564 1564 1564 1564 1564 1564 1563 1562 1561 1559 1559 1558 1556 1555 1554 1553 1551 1551 1548 1547 1546 1544 1543 1542 1540 1540 1538 1538 1537 1537 1537 1537 1536 1536 1535 1534 1534 1534 1534 1533 1533 1533
1565 1565 1565 1565 1565 1565 1565 1564 1563 1562 1561 1560 1558 1558 1557 1555 1554 1552 1552 1550 1548 1547 1546 1544 1543 1541 1540 1539 1538 1538 1537 1537 1537 1537 1536 1536 1536 1535 1534 1534 1534 1534 1533
1565 1566 1566 1566 1566 1566 1565 1564 1564 1563 1562 1561 1560 1559 1558 1556 1555 1553 1552 1551 1549 1548 1546 1545 1544 1543 1542 1540 1540 1539 1538 1537 1537 1537 1537 1537 1536 1536 1535 1535 1534 1534 1534
1566 1566 1567 1566 1566 1566 1565 1565 1564 1564 1562 1562 1561 1559 1559 1557 1556 1555 1553 1551 1550 1549 1547 1546 1544 1544 1543 1541 1541 1540 1539 1538 1538 1538 1538 1537 1537 1536 1536 1535 1535 1535 1534
1566 1567 1567 1566 1567 1566 1566 1566 1565 1564 1564 1563 1561 1560 1559 1558 1557 1556 1554 1553 1551 1550 1548 1547 1546 1544 1543 1543 1542 1541 1541 1540 1539 1538 1538 1538 1537 1537 1536 1536 1536 1536 1535
1566 1567 1567 1567 1567 1567 1566 1566 1566 1565 1564 1563 1562 1561 1560 1559 1557 1556 1555 1554 1552 1551 1550 1549 1547 1546 1545 1544 1544 1543 1542 1542 1541 1539 1539 1539 1538 1537 1537 1537 1537 1536 1536
1566 1566 1567 1567 1567 1567 1566 1566 1566 1565 1565 1563 1562 1561 1561 1560 1558 1557 1556 1555 1553 1552 1551 1549 1548 1547 1546 1545 1545 1544 1544 1544 1542 1541 1540 1539 1539 1538 1538 1537 1537 1537 1537
1565 1566 1566 1567 1566 1566 1566 1566 1565 1565 1565 1564 1563 1562 1561 1560 1559 1558 1557 1556 1555 1554 1552 1550 1549 1548 1548 1547 1546 1546 1545 1544 1544 1543 1541 1540 1539 1539 1538 1537 1537 1537 1537
1564 1565 1566 1566 1566 1566 1566 1566 1566 1566 1565 1564 1564 1563 1562 1561 1560 1558 1558 1557 1556 1554 1553 1552 1550 1550 1549 1548 1547 1546 1546 1545 1545 1544 1543 1542 1540 1539 1538 1538 1537 1537 1537
1563 1564 1565 1566 1566 1565 1565 1565 1565 1565 1565 1564 1564 1563 1563 1561 1560 1559 1558 1558 1557 1555 1554 1552 1551 1550 1549 1549 1548 1547 1546 1546 1545 1545 1543 1543 1542 1541 1539 1538 1538 1537 1537
1562 1563 1564 1565 1565 1564 1564 1564 1564 1564 1564 1564 1563 1563 1563 1562 1561 1560 1559 1558 1557 1556 1555 1553 1552 1551 1550 1549 1548 1548 1547 1547 1546 1545 1544 1543 1542 1541 1540 1539 1538 1538 1537